Location: Unspecified
(30.0455°N, 0.0000°E)
Time: 21:25:46
(UTC+00:00)

DIWATA 2B (PO-101) - Visible Passes

Search period start: 04 April 2026 00:00
Search period end: 14 April 2026 00:00
Orbit: 557 x 576 km, 98.1° (Epoch: 29 March)

Date Brightness Start Highest point End Pass type
(mag) Time Alt. Az. Time Alt. Az. Time Alt. Az.
4 Apr ? 05:00:37 10° ESE 05:03:02 16° ENE 05:05:26 10° NNE visible
5 Apr ? 05:01:22 10° ESE 05:03:49 16° ENE 05:06:16 10° NNE visible
6 Apr ? 05:02:06 10° ESE 05:04:36 16° ENE 05:07:05 10° NNE visible
7 Apr ? 05:02:51 10° ESE 05:05:23 16° ENE 05:07:55 10° NNE visible
8 Apr ? 05:03:35 10° ESE 05:06:10 17° ENE 05:08:43 10° NNE visible
9 Apr ? 05:04:20 10° ESE 05:06:56 17° ENE 05:09:32 10° NNE visible
10 Apr ? 05:05:03 10° ESE 05:07:42 17° ENE 05:10:20 10° NNE visible
11 Apr ? 05:05:47 10° ESE 05:08:27 17° ENE 05:11:08 10° NNE visible
12 Apr ? 05:06:31 10° ESE 05:09:13 18° ENE 05:11:55 10° NNE visible
13 Apr ? 05:07:14 10° ESE 05:09:58 18° ENE 05:12:42 10° NNE visible
